Lewiston, ID

9:03 AM PST on December 10, 2016 (GMT -0800)
Lewiston-Nez Perce County

Weather History for KLWS - March, 2013

Change the Weather History Date:

Wednesday, March 6, 2013

  Actual Average Record
Temperature  
Mean Temperature 49 °F 43 °F  
Max Temperature 59 °F 52 °F 67 °F (2007)
Min Temperature 38 °F 34 °F 12 °F (1945)
Degree Days  
Heating Degree Days 16 22  
Month to date heating degree days 113 138  
Since 1 July heating degree days 3552 3993  
Cooling Degree Days 0 0  
Month to date cooling degree days 0 0  
Year to date cooling degree days 0 0  
Moisture  
Dew Point 36 °F    
Average Humidity 67    
Maximum Humidity 82    
Minimum Humidity 51    
Precipitation  
Precipitation 0.02 in 0.03 in 0.55 in (1934)
Month to date precipitation 0.02 0.20  
Year to date precipitation 1.60 2.06  
Snow  
Snow 0.00 in 0.00 in 3.40 in (1964)
Month to date snowfall 0.0 0.3  
Since 1 July snowfall 2.6 10.1  
Snow Depth 0.00 in    
Sea Level Pressure  
Sea Level Pressure 29.70 in    
Wind  
Wind Speed 7 mph (East)    
Max Wind Speed 26 mph    
Max Gust Speed 36 mph    
Visibility 10 miles    
Events Rain    
T = Trace of Precipitation, MM = Missing Value Source: NWS Daily Summary

Daily Weather History Graph

Daily Weather History Graph

Search for Another Location

Airport or City:

Trip Planner

Search our weather history database for the weather conditions in past years. The results will help you decide how hot, cold, wet, or windy it might be!

Date:

Astronomy

Mar. 06, 2013 Rise Set
Actual Time 6:17 AM PST 5:41 PM PST
Civil Twilight 5:47 AM PST 6:11 PM PST
Nautical Twilight 5:12 AM PST 6:46 PM PST
Astronomical Twilight 4:37 AM PST 7:21 PM PST
Moon 2:45 AM PST (3/6) 12:14 PM PST (3/6)
Length of Visible Light 12h 24m
Length of Day
11h 24m
Waning Crescent, 29% of the Moon is Illuminated
Mar 6
Waning Crescent
Mar 11
New
Mar 19
First Quarter
Mar 27
Full
Apr 2
Last Quarter

Hourly Weather History & Observations

Time (PST) Temp. Windchill Dew Point Humidity Pressure Visibility Wind Dir Wind Speed Gust Speed Precip Events Conditions
12:56 AM 43.0 °F - 30.0 °F 60% 29.77 in 10.0 mi Calm Calm - N/A   Overcast
1:56 AM 42.1 °F 37.7 °F 32.0 °F 67% 29.74 in 10.0 mi SSE 6.9 mph - 0.00 in Rain Light Rain
2:56 AM 41.0 °F 39.0 °F 34.0 °F 76% 29.71 in 10.0 mi NE 3.5 mph - 0.02 in Rain Light Rain
3:56 AM 41.0 °F 38.0 °F 33.1 °F 73% 29.69 in 10.0 mi NE 4.6 mph - 0.00 in   Mostly Cloudy
4:56 AM 39.0 °F 34.8 °F 34.0 °F 82% 29.69 in 10.0 mi ESE 5.8 mph - N/A   Mostly Cloudy
5:56 AM 39.0 °F 36.8 °F 34.0 °F 82% 29.68 in 10.0 mi South 3.5 mph - N/A   Scattered Clouds
6:56 AM 42.1 °F 36.1 °F 34.0 °F 73% 29.65 in 10.0 mi ENE 10.4 mph - N/A   Overcast
7:56 AM 43.0 °F 40.3 °F 36.0 °F 76% 29.65 in 10.0 mi East 4.6 mph - N/A   Partly Cloudy
8:56 AM 46.0 °F 41.9 °F 37.0 °F 71% 29.63 in 10.0 mi ENE 8.1 mph - N/A   Partly Cloudy
9:56 AM 48.0 °F - 37.9 °F 68% 29.62 in 10.0 mi ENE 11.5 mph - N/A   Clear
10:56 AM 51.1 °F - 39.0 °F 63% 29.60 in 10.0 mi East 8.1 mph - N/A   Clear
11:56 AM 57.0 °F - 39.9 °F 53% 29.59 in 10.0 mi NE 9.2 mph - N/A   Partly Cloudy
12:56 PM 51.1 °F - 42.1 °F 71% 29.59 in 8.0 mi South 17.3 mph 25.3 mph 0.00 in Rain Light Rain
1:56 PM 55.9 °F - 42.1 °F 60% 29.59 in 10.0 mi North 3.5 mph - 0.00 in   Clear
2:56 PM 55.0 °F - 39.9 °F 57% 29.60 in 10.0 mi WNW 9.2 mph - N/A   Mostly Cloudy
3:56 PM 48.9 °F - 36.0 °F 61% 29.62 in 10.0 mi NW 24.2 mph 35.7 mph 0.00 in Rain Light Rain
4:56 PM 46.9 °F - 36.0 °F 66% 29.67 in 10.0 mi NW 15.0 mph 24.2 mph 0.00 in   Overcast
5:56 PM 46.9 °F - 35.1 °F 63% 29.73 in 10.0 mi West 4.6 mph - N/A   Overcast
6:56 PM 46.9 °F - 34.0 °F 61% 29.78 in 10.0 mi Calm Calm - N/A   Overcast
7:56 PM 44.1 °F 40.8 °F 37.9 °F 79% 29.81 in 10.0 mi South 5.8 mph - 0.00 in   Overcast
8:56 PM 43.0 °F - 37.0 °F 80% 29.84 in 10.0 mi Calm Calm - N/A   Overcast
9:56 PM 42.1 °F - 36.0 °F 79% 29.87 in 10.0 mi Calm Calm - N/A   Overcast
10:56 PM 44.6 °F 38.8 °F 33.8 °F 66% 29.89 in 10.0 mi SSW 11.5 mph - N/A   Overcast
11:56 PM 43.0 °F 38.8 °F 32.0 °F 65% 29.92 in 10.0 mi SSW 6.9 mph - N/A   Overcast